North Tunica, Mississippi
Current Conditions -  °F | °C
As of 3:35 PM on Friday 24 Oct 2014 (Local Time) from KUTA Reporting Station
Clear Clear  
Wind Chill: 73°   Ceiling: Unl
Heat Index: 73°   Visibility: 10mi
Dew Point: 52°   Wind: 6mph
Humidity: 47%   Direction: 320°NW
Pressure: 30.09"   Gusts: NA
Location:  34.6827°N, 90.3615°W
Report Text: KUTA 242035Z AUTO 32005KT 10SM CLR 23/11 A3009 RMK AO2
Loading
Personal Weather Stations






























Interactive Weather Map
Tropical Storm Tracking
New forecast layout! Learn more

10-Day Weather Forecast

Advertisements
Track Severe Weather on mobile